This demonstration page uses our WeatherBlox Daily Observations layout. Learn more.

Left ArrowRight Arrow

39.01783, -85.05884

Hourly Observations for February 28, 2015

Temp ( °F °C ) Dew Point ( °F °C ) Humidity (%) Winds ( mph kmh ) Pressure ( in mb ) Visibility ( mi km ) Precip ( " mm )
12:52 am 00:52 Partly Cloudy 13 -10.6 0 -17.8 56 56 E 5 7 30.69 1039 10 16 0.00 0.00
2:52 am 02:52 Partly Cloudy 12 -11.1 1 -17.2 61 61 E 7 11 30.70 1040 10 16 0.00 0.00
3:52 am 03:52 Cloudy 12 -11.1 0 -17.8 58 58 E 7 11 30.69 1039 10 16 0.00 0.00
4:52 am 04:52 Cloudy 12 -11.1 0 -17.8 58 58 E 3 6 30.70 1040 10 16 0.00 0.00
5:52 am 05:52 Cloudy 12 -11.1 1 -17.2 61 61 E 9 15 30.70 1040 10 16 0.00 0.00
6:52 am 06:52 Cloudy 13 -10.6 0 -17.8 56 56 E 8 13 30.73 1041 10 16 0.00 0.00
7:52 am 07:52 Cloudy 13 -10.6 1 -17.2 59 59 E 8 13 30.74 1041 10 16 0.00 0.00
8:52 am 08:52 Cloudy 15 -9.4 1 -17.2 53 53 E 9 15 30.75 1041 10 16 0.00 0.00
9:52 am 09:52 Mostly Cloudy 17 -8.3 2 -16.7 51 51 E 7 11 30.75 1041 10 16 0.00 0.00
10:52 am 10:52 Mostly Cloudy 19 -7.2 4 -15.6 51 51 E 8 13 30.74 1041 10 16 0.00 0.00
11:52 am 11:52 Cloudy 22 -5.6 6 -14.4 50 50 ESE 7 11 30.72 1040 10 16 0.00 0.00
12:52 pm 12:52 Mostly Cloudy 24 -4.4 6 -14.4 46 46 E 6 9 30.69 1039 10 16 0.00 0.00
1:52 pm 13:52 Cloudy 27 -3 7 -14 43 43 ESE 5 7 30.68 1039 10 16 0.00 0.00
2:52 pm 14:52 Cloudy 27 -2.8 8 -13.3 45 45 E 9 15 30.62 1037 10 16 0.00 0.00
3:52 pm 15:52 Mostly Cloudy 28 -2.2 8 -13.3 43 43 E 9 15 30.60 1036 10 16 0.00 0.00
4:52 pm 16:52 Cloudy 29 -1.7 10 -12.2 45 45 ESE 7 11 30.58 1036 10 16 0.00 0.00
5:52 pm 17:52 Cloudy 28 -2.2 12 -11.1 51 51 E 8 13 30.58 1036 10 16 0.00 0.00
6:52 pm 18:52 Cloudy 28 -2.2 12 -11.1 51 51 E 9 15 30.56 1035 10 16 0.00 0.00
7:52 pm 19:52 Cloudy 28 -2.2 13 -10.6 53 53 E 8 13 30.54 1034 10 16 0.00 0.00
8:52 pm 20:52 Cloudy 27 -2.8 13 -10.6 55 55 ENE 7 11 30.53 1034 10 16 0.00 0.00
9:52 pm 21:52 Cloudy 27 -2.8 13 -10.6 55 55 NNE 5 7 30.53 1034 10 16 0.00 0.00
10:52 pm 22:52 Cloudy 27 -2.8 14 -10 58 58 NNE 7 11 30.53 1034 10 16 0.00 0.00
11:52 pm 23:52 Cloudy with Light Snow 26 -3.3 15 -9.4 63 63 ENE 3 6 30.52 1034 3 4 0.00 0.03

Powered by AerisWeather